Location: Tyumen
(57.1527°N, 65.5323°E)
Time: 04:21:49
(UTC+05:00)

ISS - Pass Details

Date: 04 December 2021
Orbit: 413 x 422 km, 51.6° (Epoch: 22 January)

Event Time Altitude Azimuth Distance (km) Brightness Sun altitude
Rises 18:45:25 0° 270° (W) 2,386 1.6 -20.9°
Reaches altitude 10° 18:48:11 10° 246° (WSW) 1,515 0.1 -21.3°
Maximum altitude 18:50:11 15° 210° (SSW) 1,245 -0.9 -21.5°
Enters shadow 18:51:54 11° 177° (S) 1,439 -1.0 -21.8°
